Вернуться в каталог

STARLINK-34528

АктивенСвязьVLEO
NORAD 64479·PAYLOAD·🇺🇸 United States

Запущен Jun 23, 2025 с Cape Canaveral Space Force Station

Loading…

Ближайшие Пролёты (ближайшие 24 часа)

TLE

СвежийSource: CelesTrak SupGP

Эпоха: Sep 14, 2026, 22:53 UTC

1 64479C 25133H   26257.95395833  .00149800  00000+0  44220-2 0  2573
2 64479  53.1580 311.8564 0001051  89.1203  59.6800 15.34344356    19

Отслеживайте STARLINK-34528 в реальном времени с AllMySat

Download on the App Store